• In Hungary
  • List of Countries
  • For 7 days
  • Water Temperature
  • Satellite Maps
  • Weather Map
  • News
  • Weather Widgets
  • user-avatar
    Login

    Hourly Weather Zdzislawice

    Today, 15 October, Monday

    Time Temperature Precipitation Wind Pressure Humidity
    00:00 +10°C° 0 mm 3 mps 749 mmHg 58%
    01:00 +10°C° 0 mm 3 mps 749 mmHg 59%
    02:00 +9°C° 0 mm 2 mps 749 mmHg 63%
    03:00 +9°C° 0 mm 2 mps 749 mmHg 64%
    04:00 +9°C° 0 mm 3 mps 749 mmHg 64%
    05:00 +9°C° 0 mm 3 mps 749 mmHg 65%
    06:00 +9°C° 0 mm 3 mps 749 mmHg 65%
    07:00 +9°C° 0 mm 3 mps 749 mmHg 64%
    08:00 +10°C° 0 mm 3 mps 749 mmHg 60%
    09:00 +12°C° 0 mm 3 mps 749 mmHg 54%
    10:00 +14°C° 0 mm 3 mps 749 mmHg 48%
    11:00 +17°C° 0 mm 3 mps 749 mmHg 42%
    12:00 +18°C° 0 mm 3 mps 749 mmHg 40%
    13:00 +20°C° 0 mm 3 mps 749 mmHg 38%
    14:00 +21°C° 0 mm 3 mps 748 mmHg 36%
    15:00 +20°C° 0 mm 3 mps 748 mmHg 41%
    16:00 +18°C° 0 mm 3 mps 748 mmHg 47%
    17:00 +17°C° 0 mm 2 mps 748 mmHg 53%
    18:00 +16°C° 0 mm 3 mps 748 mmHg 57%
    19:00 +13°C° 0 mm 3 mps 748 mmHg 61%
    20:00 +12°C° 0 mm 3 mps 748 mmHg 65%
    21:00 +12°C° 0 mm 3 mps 748 mmHg 65%
    22:00 +11°C° 0 mm 3 mps 747 mmHg 66%
    23:00 +11°C° 0 mm 3 mps 747 mmHg 66%

    Tomorrow, 16 October, Tuesday

    Time Temperature Precipitation Wind Pressure Humidity
    00:00 +10°C° 0 mm 3 mps 747 mmHg 65%
    01:00 +10°C° 0 mm 3 mps 747 mmHg 65%
    02:00 +10°C° 0 mm 3 mps 747 mmHg 65%
    03:00 +9°C° 0 mm 2 mps 747 mmHg 64%
    04:00 +9°C° 0 mm 2 mps 747 mmHg 63%
    05:00 +9°C° 0 mm 2 mps 747 mmHg 62%
    06:00 +9°C° 0 mm 2 mps 747 mmHg 60%
    07:00 +10°C° 0 mm 2 mps 747 mmHg 59%
    08:00 +10°C° 0 mm 2 mps 747 mmHg 58%
    09:00 +13°C° 0 mm 2 mps 747 mmHg 51%
    10:00 +15°C° 0 mm 2 mps 748 mmHg 45%
    11:00 +18°C° 0 mm 2 mps 748 mmHg 38%
    12:00 +19°C° 0 mm 2 mps 748 mmHg 36%
    13:00 +20°C° 0 mm 2 mps 748 mmHg 34%
    14:00 +21°C° 0 mm 2 mps 748 mmHg 32%
    15:00 +20°C° 0 mm 2 mps 747 mmHg 36%
    16:00 +19°C° 0 mm 2 mps 747 mmHg 41%
    17:00 +18°C° 0 mm 2 mps 747 mmHg 45%
    18:00 +16°C° 0 mm 2 mps 747 mmHg 49%
    19:00 +15°C° 0 mm 2 mps 747 mmHg 53%
    20:00 +14°C° 0 mm 2 mps 747 mmHg 56%
    21:00 +13°C° 0 mm 2 mps 747 mmHg 58%
    22:00 +13°C° 0 mm 2 mps 747 mmHg 60%
    23:00 +12°C° 0 mm 2 mps 747 mmHg 62%

    Day after tomorrow, 17 October, Wednesday

    Time Temperature Precipitation Wind Pressure Humidity
    00:00 +12°C° 0 mm 2 mps 747 mmHg 62%
    01:00 +12°C° 0 mm 1 mps 747 mmHg 63%
    02:00 +11°C° 0 mm 1 mps 747 mmHg 63%
    03:00 +11°C° 0 mm 1 mps 747 mmHg 64%
    04:00 +11°C° 0 mm 1 mps 747 mmHg 64%
    05:00 +10°C° 0 mm 1 mps 747 mmHg 65%
    06:00 +10°C° 0 mm 1 mps 747 mmHg 65%
    07:00 +11°C° 0 mm 1 mps 747 mmHg 65%
    08:00 +11°C° 0 mm 1 mps 747 mmHg 65%
    09:00 +13°C° 0 mm 1 mps 748 mmHg 58%
    10:00 +15°C° 0 mm 1 mps 748 mmHg 51%
    11:00 +17°C° 0 mm 2 mps 748 mmHg 44%
    12:00 +19°C° 0 mm 2 mps 747 mmHg 42%
    13:00 +20°C° 0 mm 2 mps 747 mmHg 39%
    14:00 +21°C° 0 mm 2 mps 747 mmHg 36%
    15:00 +20°C° 0 mm 2 mps 747 mmHg 42%
    16:00 +19°C° 0 mm 2 mps 746 mmHg 47%
    17:00 +18°C° 0 mm 2 mps 746 mmHg 52%
    18:00 +16°C° 0 mm 2 mps 746 mmHg 58%
    19:00 +15°C° 0 mm 2 mps 746 mmHg 63%
    20:00 +14°C° 0 mm 2 mps 746 mmHg 68%
    21:00 +14°C° 0 mm 2 mps 746 mmHg 72%
    22:00 +13°C° 0 mm 2 mps 746 mmHg 75%
    23:00 +13°C° 0 mm 2 mps 746 mmHg 79%

    18 October, Thursday

    Time Temperature Precipitation Wind Pressure Humidity
    00:00 +13°C° 0 mm 2 mps 746 mmHg 81%
    01:00 +12°C° 0 mm 2 mps 746 mmHg 84%
    02:00 +12°C° 0 mm 2 mps 746 mmHg 86%
    03:00 +10°C° 0 mm 2 mps 746 mmHg 86%
    04:00 +10°C° 0 mm 2 mps 746 mmHg 86%
    05:00 +10°C° 0 mm 2 mps 746 mmHg 86%
    06:00 +10°C° 0 mm 2 mps 746 mmHg 84%
    07:00 +10°C° 0 mm 2 mps 746 mmHg 83%
    08:00 +10°C° 0 mm 2 mps 746 mmHg 81%
    09:00 +13°C° 0 mm 2 mps 746 mmHg 73%
    10:00 +15°C° 0 mm 2 mps 746 mmHg 64%
    11:00 +17°C° 0 mm 2 mps 746 mmHg 56%
    12:00 +18°C° 0 mm 2 mps 745 mmHg 52%
    13:00 +20°C° 0 mm 1 mps 745 mmHg 49%
    14:00 +21°C° 0 mm 1 mps 745 mmHg 45%
    15:00 +20°C° 0 mm 1 mps 745 mmHg 48%
    16:00 +19°C° 0 mm 1 mps 745 mmHg 52%
    17:00 +18°C° 0 mm 1 mps 745 mmHg 55%
    18:00 +16°C° 0 mm 1 mps 745 mmHg 58%
    19:00 +15°C° 0 mm 1 mps 745 mmHg 61%
    20:00 +13°C° 0 mm 0 mps 745 mmHg 64%
    21:00 +13°C° 0 mm 0 mps 745 mmHg 65%
    22:00 +13°C° 0 mm 1 mps 745 mmHg 66%
    23:00 +13°C° 0 mm 1 mps 745 mmHg 68%

    19 October, Friday

    Time Temperature Precipitation Wind Pressure Humidity
    00:00 +13°C° 0 mm 1 mps 745 mmHg 69%
    01:00 +12°C° 0 mm 1 mps 745 mmHg 70%
    02:00 +12°C° 0 mm 1 mps 745 mmHg 72%
    03:00 +11°C° 0 mm 1 mps 745 mmHg 73%
    04:00 +11°C° 0 mm 1 mps 745 mmHg 75%
    05:00 +11°C° 0 mm 1 mps 745 mmHg 77%
    06:00 +11°C° 0 mm 1 mps 745 mmHg 77%
    07:00 +11°C° 0 mm 1 mps 745 mmHg 77%
    08:00 +11°C° 0 mm 1 mps 745 mmHg 77%
    09:00 +13°C° 0 mm 1 mps 745 mmHg 69%
    10:00 +15°C° 0 mm 1 mps 745 mmHg 62%
    11:00 +17°C° 0 mm 2 mps 745 mmHg 55%
    12:00 +17°C° 0 mm 2 mps 745 mmHg 52%
    13:00 +18°C° 0 mm 2 mps 745 mmHg 49%
    14:00 +19°C° 0 mm 2 mps 744 mmHg 47%
    15:00 +18°C° 0 mm 2 mps 744 mmHg 51%
    16:00 +17°C° 0 mm 2 mps 744 mmHg 55%
    17:00 +16°C° 0 mm 1 mps 744 mmHg 59%
    18:00 +15°C° 0 mm 1 mps 744 mmHg 63%
    19:00 +14°C° 0 mm 1 mps 744 mmHg 67%
    20:00 +13°C° 0 mm 1 mps 745 mmHg 71%
    21:00 +13°C° 0 mm 1 mps 745 mmHg 74%
    22:00 +12°C° 0 mm 1 mps 745 mmHg 76%
    23:00 +12°C° 0 mm 1 mps 745 mmHg 79%

    20 October, Saturday

    Time Temperature Precipitation Wind Pressure Humidity
    00:00 +12°C° 0 mm 2 mps 745 mmHg 81%
    01:00 +10°C° 0 mm 2 mps 745 mmHg 83%
    02:00 +10°C° 0 mm 2 mps 745 mmHg 85%
    03:00 +10°C° 0 mm 2 mps 745 mmHg 86%
    04:00 +9°C° 0 mm 2 mps 745 mmHg 87%
    05:00 +9°C° 0 mm 2 mps 745 mmHg 89%
    06:00 +9°C° 0 mm 2 mps 745 mmHg 89%
    07:00 +9°C° 0 mm 2 mps 745 mmHg 89%
    08:00 +9°C° 0 mm 2 mps 746 mmHg 90%
    09:00 +11°C° 0 mm 3 mps 746 mmHg 85%
    10:00 +12°C° 0 mm 3 mps 746 mmHg 80%
    11:00 +14°C° 0 mm 4 mps 746 mmHg 75%
    12:00 +14°C° 0.1 mm 4 mps 746 mmHg 74%
    13:00 +13°C° 0.1 mm 4 mps 746 mmHg 74%
    14:00 +13°C° 0.1 mm 4 mps 746 mmHg 74%
    15:00 +13°C° 0 mm 4 mps 746 mmHg 72%
    16:00 +12°C° 0 mm 4 mps 746 mmHg 69%
    17:00 +12°C° 0 mm 4 mps 746 mmHg 67%
    18:00 +11°C° 0 mm 4 mps 747 mmHg 70%
    19:00 +10°C° 0 mm 4 mps 747 mmHg 72%
    20:00 +8°C° 0 mm 4 mps 747 mmHg 75%
    21:00 +7°C° 0 mm 4 mps 748 mmHg 79%
    22:00 +7°C° 0 mm 4 mps 748 mmHg 82%
    23:00 +6°C° 0 mm 4 mps 748 mmHg 85%
    Show more